Other Public Products
Issued by NWS Grand Forks, ND

Home | Current Version | Previous Version | Text Only | Print | Product List | Glossary Off
Versions: 1 2 3 4 5 6 7 8 9 10 11 12 13 14 15 16 17 18 19 20 21 22 23 24 25 26 27 28 29 30 31 32 33 34 35 36 37 38 39 40 41 42 43 44 45 46 47 48 49 50

000
FPUS83 KFGF 132331
OPUFGF
PRAIRIE TO PINES WEATHER ROUNDUP
NATIONAL WEATHER SERVICE EASTERN NORTH DAKOTA/GRAND FORKS ND
600 PM CDT SUN JUL 13 2014

 **SATELLITE DATA USED TO AUGMENT SKY COVER AT AUTOMATED STATIONS**
 *****  WEATHER ACROSS EASTERN NORTH DAKOTA  *****

CITY           SKY/WX    TMP DP  RH WIND       PRES   REMARKS
GRAND FORKS    CLOUDY    66  49  54 NW14      29.92R
GRAND FORKS AF MOSUNNY   66  47  49 N15       29.93S
GRAND CITY NWS   N/A     64 N/A N/A N13         N/A
BUXTON           N/A     70  48  44 NW16G29     N/A
DEVILS LAKE    CLOUDY    64  45  48 NW17G29   29.96S
FARGO          CLOUDY    72  45  37 NW24      29.91R
WAHPETON ARPT  CLEAR     73  36  25 NW18G25   29.92S
$$

 *****  WEATHER ACROSS CENTRAL AND WESTERN NORTH DAKOTA  *****

CITY           SKY/WX    TMP DP  RH WIND       PRES   REMARKS
JAMESTOWN      CLOUDY    70  44  39 NW21G33   29.97S
BISMARCK       SUNNY     75  41  29 NW17G32   30.05S
MINOT          MOSUNNY   70  43  37 NW25G31   30.03F
MINOT AFB      MOSUNNY   69  45  41 NW24      30.03S
GARRISON         N/A     72  42  34 NW21G32   30.05F
WILLISTON      SUNNY     77  34  21 N18G29    30.11F
DICKINSON      SUNNY     74  38  27 NW21G26   30.10S
HETTINGER      SUNNY     76  40  27 N15       30.12S
$$

 *****  OTHER OBSERVATIONS NORTHEAST NORTH DAKOTA  *****

CITY           SKY/WX    TMP DP  RH WIND       PRES   REMARKS
WALHALLA         N/A     63  46  55 NW20        N/A
LANGDON        CLOUDY    61  46  59 NW17G23   29.96S
CAVALIER       MOCLDY    64  46  52 NW20      29.93S
GRAFTON        CLOUDY    64  46  52 NW17G23   29.92S
CANDO          CLOUDY    63  46  55 N21G28    30.00R
FORT TOTTEN      N/A     66  47  50 NW10      29.95S
ROLLA          CLOUDY    59  45  58 N17G23    30.02R
RUGBY          FAIR      66  48  52 N23       30.00S
 ***** THE ABOVE OBSERVATIONS ARE NON NWS ARE NOT QUALITY
        CONTROLLED AND MAY MIS-REPORT RAIN FOR SNOW...
$$

 *****  OTHER OBSERVATIONS SOUTHEAST NORTH DAKOTA *****

CITY           SKY/WX    TMP DP  RH WIND       PRES   REMARKS
COOPERSTOWN    NOT AVBL
VALLEY CITY    CLOUDY    68  46  45 NW18G25   29.95S
OAKES          NOT AVBL
GWINNER        PTCLDY    75  45  33 NW16G25   29.96S
SHEYENNE NWR     N/A     75  42  30 NW13      29.95S
BUFFALO          N/A     71  37  28 N16         N/A
WYNDMERE       NOT AVBL
 ***** THE ABOVE OBSERVATIONS ARE NON NWS ARE NOT QUALITY
       CONTROLLED AND MAY MIS-REPORT RAIN FOR SNOW...
$$

  *****  WEATHER ACROSS NORTHERN MINNESOTA  *****

CITY           SKY/WX    TMP DP  RH WIND       PRES   REMARKS
FLAG ISLAND    PTSUNNY   57  52  82 W15       29.81F
WARROAD        PTSUNNY   57  52  82 W12G17    29.87S
ROSEAU         PTSUNNY   57  52  82 W14G22    29.88S
HALLOCK          N/A     63  46  55 NW18G29   29.91R
THF RVR FALLS  CLOUDY    59  52  77 NW15      29.92R
HALSTAD          N/A     69  41  36 NW17        N/A
FOSSTON        PTSUNNY   63  46  55 NW18      29.91S
BAUDETTE       CLOUDY    58  52  80 NW9       29.86S
WASKISH        CLOUDY    55  52  88 NW12G18   29.88F
CROOKSTON      PTSUNNY   64  48  55 N17       29.93R
$$
  *****  WEATHER ACROSS CENTRAL AND WEST MINNESOTA  *****

CITY           SKY/WX    TMP DP  RH WIND       PRES   REMARKS
BEMIDJI        CLOUDY    63  48  58 W14       29.88F
PARK RAPIDS    CLOUDY    67  46  47 NW17      29.89S
WADENA         MOSUNNY   68  46  45 W10G22    29.89F
DETROIT LAKES  SUNNY     68  46  45 NW16G26   29.92R
MOORHEAD       MOSUNNY   73  41  31 NW16G26   29.92R
FERGUS FALLS   PTSUNNY   73  37  27 NW18G28   29.90S
ELBOW LAKE     FAIR      72  45  37 NW16G24   29.92S
MORRIS MN      SUNNY     73  45  35 NW12      29.92F
STAPLES        CLOUDY    68  45  42 NW10      29.89F
WHEATON        SUNNY     72  45  37 W18       29.94F
$$
  *****  WEATHER ELSEWHERE ACROSS MINNESOTA  *****

CITY           SKY/WX    TMP DP  RH WIND       PRES   REMARKS
DULUTH         PTSUNNY   67  45  45 W13G25    29.84S
INTRNTL FALLS  LGT RAIN  55  51  86 W12       29.83S
ELY            PTSUNNY   59  52  77 NW12G20   29.82S
CLOQUET        CLOUDY    66  45  45 W8        29.86S
BRAINERD       CLOUDY    75  45  34 W12       29.88F
HIBBING        LGT RAIN  61  51  70 W7G23     29.84S
ALEXANDRIA     SUNNY     73  42  32 NW17G26   29.93F
SAINT CLOUD    MOSUNNY   76  45  33 NW15      29.89F
MINNEAPOLIS    MOSUNNY   76  51  41 NW13      29.89S
$$

  *****  WEATHER ACROSS SOUTH DAKOTA  *****

CITY           SKY/WX    TMP DP  RH WIND       PRES   REMARKS
SIOUX FALLS    MOSUNNY   81  56  42 NW17      29.96F
BROOKINGS      NOT AVBL
WATERTOWN      SUNNY     74  43  32 NW15G22   29.98S
HURON          SUNNY     79  50  36 N18       29.98S
SISSETON         N/A     75  44  33 NW15G22   29.93F
ABERDEEN       SUNNY     76  40  27 NW21G28   29.99S
MITCHELL       SUNNY     82  56  40 NW16G25   29.98S
PIERRE         SUNNY     80  56  43 NW18      30.03S
MOBRIDGE       SUNNY     77  46  33 NW16G24   30.01F
RAPID CITY     PTSUNNY   79  56  45 NE10      30.11F
$$

  *****  SOME WEATHER IN NEARBY STATES *****

CITY           SKY/WX    TMP DP  RH WIND       PRES   REMARKS
GLASGOW MT     NOT AVBL
GREAT FALLS MT NOT AVBL
CHEYENNE WY    MOSUNNY   76  53  44 CALM      30.31F
SCOTTSBLUFF NE MOSUNNY   87  56  34 NW9       30.16S
OMAHA NE       PTSUNNY   83  66  56 CALM      29.98S
DES MOINES IA  PTSUNNY   83  62  49 N8        29.95F
DAVENPORT IA     N/A     74  64  71 NW6       29.93F
CHICAGO IL     MOSUNNY   83  61  47 W10       29.87F
EAU CLAIRE WI  PTSUNNY   73  49  42 W12       29.88F
LA CROSSE WI   SUNNY     79  48  33 W14       29.90S
$$

  *****  SOME NATIONAL WEATHER *****

CITY           SKY/WX    TMP DP  RH WIND       PRES   REMARKS
LA GUARDIA NY  PTSUNNY   77  70  79 S14       29.90F
RALEIGH NC     MOSUNNY   90  66  45 S9        30.01S HX  92
ATLANTA GA     PTSUNNY   86  70  58 S3        30.04F HX  90
NEW ORLEANS LA MOSUNNY   88  71  57 CALM      30.03R HX  94
OKLAHOMA CITY  MOSUNNY   98  58  26 S10       29.96S HX  97
ALBUQUERQUE NM CLOUDY    80  56  43 SE15G24   30.21R
SALT LAKE CITY MOSUNNY   97  43  15 NW12      30.10F HX  93
LOS ANGELES CA MOSUNNY   75  62  64 W10       29.88F
BOISE ID       NOT AVBL
SEATTLE WA     CLOUDY    82  58  43 W8        30.06F
$$

*** WEATHER ACROSS MANITOBA...SASKATCHEWAN AND ONTARIO ***
                ***ONTARIO***

CITY           SKY/WX    TMP DP  RH WIND       PRES   REMARKS
GERALDTON      NOT AVBL
THUNDER BAY    PTSUNNY   61  54  77 W7        29.76R
SIOUX LOOKOUT  PTSUNNY   59  45  58 NW9       29.74S
TORONTO        MOSUNNY   81  61  50 W17       29.80R
BIG TROUT LK   CLOUDY    61  52  72 N3        29.73R
PICKLE LAKE    PTSUNNY   54  45  71 W10       29.71R
DRYDEN         CLOUDY    55  50  82 W12G20    29.77S
KENORA         LGT RAIN  52  50  93 NW9       29.80F
$$
                *** MANITOBA***

CITY           SKY/WX    TMP DP  RH WIND       PRES   REMARKS
BRANDON        PTSUNNY   63  46  55 N22G31    30.01R
DAUPHIN        PTSUNNY   63  48  59 NW18G28   29.99S
ISLAND LAKE    LGT RAIN  52  46  82 N10       29.88R
PILOT MOUND      N/A     59  46  63 NW16G24     N/A
THE PAS        PTSUNNY   61  50  67 NW14      30.06R
THOMPSON       MOSUNNY   61  52  72 N21       30.01R
WINNIPEG       LGT RAIN  55  52  88 NW17G25   29.90R
LYNN LAKE      MOSUNNY   61  48  63 N17G24    30.18S
CHURCHILL      LGT RAIN  45  41  87 NE16G23   30.14R
GILLAM         PTSUNNY   61  54  77 NE25      29.96R
$$
                ***SASKATCHEWAN***

CITY           SKY/WX    TMP DP  RH WIND       PRES   REMARKS
ESTEVAN        MOSUNNY   68  46  45 N20G30    30.10S
KINDERSLEY     SUNNY     72  39  30 N13       30.25
LLOYDMINSTER   SUNNY     72  45  37 NE6       30.27S
PRINCE ALBERT  MOSUNNY   70  48  46 N17G25    30.19R
REGINA         MOSUNNY   66  45  45 N21G28    30.15S


USA.gov is the U.S. government's official web portal to all federal, state and local government web resources and services.